151  
ASUS44 KEWX 251110  
RWREWX  
SOUTH TEXAS REGIONAL WEATHER ROUNDUP  
NATIONAL WEATHER SERVICE AUSTIN/SAN ANTONIO TX  
600 AM CDT SAT MAY 25 2024  
 
NOTE: "FAIR" INDICATED FEW OR NO CLOUDS BELOW 12,000 FEET WITH NO  
SIGNIFICANT WEATHER AND/OR S TO VISIBILITY
.  
 
* - THESE STATIONS ARE NOT NWS OR FAA STATIONS...AND ARE NOT SUBJECT  
TO NWS AND FAA QUALITY CONTROL.
 
 
TXZ171-172-183>190-251200-  
TEXAS HILL COUNTRY AND EDWARDS PLATEAU  
 
CITY SKY/WX TMP DP RH WIND PRES REMARKS
 
JUNCTION PTCLDY 82 75 79 SE7 29.80S  
*LLANO N/A 75 73 94 CALM 29.80R FOG  
BURNET CLOUDY 76 75 97 S9 29.82R  
*HORSESHOE BAY CLOUDY 76 73 92 CALM 29.81R  
*LAGO VISTA CLOUDY 76 75 98 S7 29.84S  
*KERRVILLE CLOUDY 77 73 86 SE8 29.82R FOG  
*FREDERICKSBRG CLOUDY 76 72 88 S6 29.83R  
*ROCKSPRINGS CLOUDY 75 73 94 SE10 29.86R  
*BOERNE CLOUDY 75 75 100 SE7 29.82R  
*CASTROVILLE CLOUDY N/A N/A N/A SE6 29.79S  
HONDO CLOUDY 79 75 87 SE8 29.78R  
*UVALDE CLOUDY 79 79 100 E9 29.78R  
DEL RIO CLEAR 83 75 77 E12 29.71R HX 90  
*LAUGHLIN AFB CLEAR 81 75 81 E14 29.70R  
*SPOFFORD N/A 80 76 87 E14 29.72R  
CARRIZO SPRGS CLOUDY 79 79 100 SE7 29.72R  
*FAITH RANCH CLEAR 81 75 83 E10 29.73R  

 
 
TXZ173-191>194-202-209-217>225-228-251200-  
CENTRAL AND SOUTH CENTRAL TEXAS  
 
CITY SKY/WX TMP DP RH WIND PRES REMARKS
 
GEORGETOWN CLOUDY 77 76 96 S5 29.81R  
*TAYLOR CLOUDY 75 74 96 SE3 29.78S FOG  
AUSTIN/BERGSTM CLOUDY 77 76 96 CALM 29.78R  
AUSTIN/MABRY CLOUDY 79 75 87 VRB5 29.79S  
*PFLUGERVILLE CLOUDY 77 77 100 CALM 29.77S FOG  
SAN MARCOS MOCLDY 76 75 97 CALM 29.80R FOG  
NEW BRAUNFELS CLOUDY 78 76 93 SE3 29.77R  
*RANDOLPH AFB CLOUDY 79 75 89 SE3 29.75S  
*SEGUIN CLOUDY 80 77 92 CALM 29.75R  
SAN ANTONIO CLOUDY 79 75 87 SE9 29.79R  
STINSON FIELD CLOUDY 80 76 87 SE8 29.76R  
*KELLY FIELD MOCLDY 80 75 83 E8 29.75R  
*PLEASANTON CLOUDY 81 76 87 SE5 29.78R  
*KENEDY CLOUDY 79 77 94 SE6 29.77R  
*LA GRANGE CLOUDY 79 79 100 CALM 29.77R  
*GIDDINGS CLOUDY 77 76 94 MISG 29.82S FOG  
*GONZALES CLOUDY 81 78 91 S5 29.77S  

 
 
TXZ163>164-176>182-195>201-210>213-226-227-235-251200-  
SOUTHEAST TEXAS  
 
CITY SKY/WX TMP DP RH WIND PRES REMARKS
 
COLLEGE STN CLOUDY 78 76 93 S5 29.78R  
*BRYAN MOCLDY 78 77 99 S5 29.81R  
*CALDWELL MOCLDY 76 75 95 SE3 29.79S  
*CROCKETT CLOUDY 77 77 100 CALM 29.80R FOG  
*BRENHAM CLOUDY 80 77 92 S5 29.79R FOG  
HUNTSVILLE PTCLDY 77 75 93 S5 29.80R  
CONROE CLOUDY 77 76 96 E5 29.81R FOG  
HOUSTON BUSH MOCLDY 80 77 90 S6 29.79R  
HOUSTON HOBBY MOCLDY 80 77 90 SE6 29.78R  
*HOUSTON SW AP CLEAR N/A N/A N/A S3 29.79S HAZE  
PEARLAND CLOUDY 79 78 97 S6 29.80R FOG  
HOUSTON HOOKS CLEAR 79 76 90 SE3 29.79R  
ELLINGTON FLD PTCLDY 79 77 94 S6 29.78R FOG  
SUGAR LAND CLOUDY 79 78 97 SE6 29.78R  
*HOUSTON EXEC CLOUDY 79 79 100 S5 29.80S FOG  
*CLEVELAND MUN CLOUDY 78 77 96 CALM 29.82S FOG  
*WHARTON MOCLDY N/A N/A N/A S6 29.79R  
*COLUMBUS CLOUDY 79 79 100 S5 29.79R  
*EAGLE LAKE CLOUDY 75 75 100 S5 29.79R FOG  

 
 
TXZ214>216-236>238-251200-  
THE UPPER TEXAS COAST  
 
CITY SKY/WX TMP DP RH WIND PRES REMARKS
 
*ORANGE CLEAR 81 77 89 SE3 29.86R  
PORT ARTHUR PTCLDY 78 76 93 E5 29.81R FOG  
GALVESTON CLOUDY 82 79 90 S15 29.80S HX 92  
ANGLETON CLOUDY 79 79 100 S10 29.78R  
*BAY CITY CLOUDY 81 78 91 S8 29.78R  
PALACIOS CLOUDY 82 79 90 S10 29.75F HX 92  

 
 
TXZ229>234-239>247-251200-  
TEXAS COASTAL BEND AND RIO GRANDE PLAINS  
 
CITY SKY/WX TMP DP RH WIND PRES REMARKS
 
VICTORIA CLOUDY 79 78 97 S8 29.76R FOG  
*BEEVILLE PTCLDY 79 77 93 SE6 29.75R  
ROCKPORT N/A N/A N/A N/A MISG 29.74S  
*PORT ARANSAS CLOUDY 83 79 89 SE12 29.76S FOG HX 94  
*PORT LAVACA MOCLDY 82 80 94 S6 29.76S FOG HX 93  
*INGLESIDE NOT AVBL  
CORPUS CHRISTI CLOUDY 83 81 94 SE10 29.73S HX 97  
CORPUS NAS CLOUDY 87 81 82 SE14 29.73 HAZE HX 104  
*ROBSTOWN CLOUDY 83 79 88 SE13G21 29.73F HX 94  
ALICE CLOUDY 82 78 88 SE8 29.72S FOG HX 91  
KINGSVILLE NAS CLOUDY 84 79 85 MISG 29.72S HAZE HX 96  
COTULLA CLOUDY 80 76 87 E9 29.73R  
LAREDO CLOUDY 81 76 84 SE8 29.70R  

 
 
TXZ248>255-251200-  
DEEP SOUTH TEXAS  
 
CITY SKY/WX TMP DP RH WIND PRES REMARKS
 
BROWNSVILLE CLOUDY 84 80 88 SE9 29.73R HX 97  
PORT ISABEL CLOUDY 83 80 91 SE14 29.73R HX 95  
HARLINGEN CLOUDY 82 79 90 SE13 29.71S HX 92  
*HEBBRONVILLE CLOUDY 80 77 90 SE10G17 29.73S FOG  
MCALLEN CLOUDY 83 80 91 SE10G22 29.70S HX 95  
*WESLACO CLOUDY 82 78 89 SE8 29.72R HX 92  
FALFURRIAS CLEAR 81 81 99 SE8 29.70S HX 93  
EDINBURG CLOUDY 82 79 89 SE13 29.70S FOG HX 93  
*ZAPATA NOT AVBL  

 
 
TXZ213>215-236>238-242>244-246-247-251-254-255-251200-  
CMAN STATIONS  
 
STATION/POSITION TIME TEMP WIND PRES WAVE
 
AIR SEA DIR/SP/G HT/PER  
(UTC) (F) (DEG/KT/KT) (MB) (FT/S)  
NORTH JETTY/GLS 1030 82 83 1008.0  
EAGLE POINT 1030 85 83 1008.1  
MORGANS POINT 1030 80 83 1008.0  
PORT O'CONNOR 1030 82 85 1007.2  
PORT ARANSAS 1100 83 140/ 15/ 16 N/A  
BAFFIN BAY 1030 82 86 1006.1  
PORT ISABEL 1030 81 84 1006.2  

 
 
 
CLICK HERE TO GO TO PREVIOUS BULLETINS.

The Nexlab TX Page Main Text Page